Wind_Speed
5 1 4 2 2 5 2 2 3 9 5 1 15 5 9 10 2 3 15 14 16 14 13 13 13 13 12 12 12 12 12 13 15 13 13 13 14 15 14 14 14 13 13 12 13 11 11 12 12
8 2 3 2 4 4 2 3 7 3 5 12 8 8 10 5 6 10 11 16 17 15 15 14 12 12 11 12 12 11 12 12 12 13 13 13 13 13 13 12 12 12 11 11 10 10 11 12 12
7 4 3 2 3 2 3 1 9 11 7 4 5 7 4 3 9 10 14 20 18 16 15 14 12 11 10 10 11 11 12 12 12 12 12 13 12 12 12 11 11 10 9 8 8 8 9 10 10
5 5 3 2 4 2 5 10 12 8 6 8 12 9 5 13 6 12 22 20 19 16 14 13 12 11 10 10 10 10 10 11 12 13 12 12 11 11 11 9 9 9 7 7 7 8 8 8 6
6 2 2 0 3 5 6 12 6 4 5 9 4 6 4 5 18 25 23 21 21 17 14 11 10 10 10 10 9 9 10 11 11 11 12 12 11 10 10 9 8 8 8 7 7 8 8 7 5
3 1 3 2 5 5 6 9 8 8 8 10 10 8 4 21 26 23 22 22 19 17 14 10 9 8 9 9 9 11 10 10 11 11 12 12 11 10 9 9 9 9 9 9 8 8 7 5 3
1 1 1 6 8 9 6 9 8 10 10 7 6 5 8 14 21 23 22 21 18 16 14 13 11 9 9 9 8 10 11 10 12 12 11 10 9 9 9 8 9 10 11 11 9 8 5 1 2
2 1 1 2 9 5 12 5 10 6 8 13 8 4 11 14 24 21 22 20 17 14 12 12 11 10 10 10 11 12 13 13 12 10 9 8 7 6 6 6 7 8 10 11 11 8 4 1 3
1 1 3 6 7 6 14 9 7 6 11 2 2 7 17 24 25 22 21 17 15 13 12 12 12 12 14 15 15 15 13 12 11 9 7 7 7 5 5 4 4 5 6 8 7 5 4 2 3
2 2 3 5 6 13 11 16 8 7 7 9 17 17 25 24 23 20 16 16 17 16 14 13 13 16 16 16 14 12 10 7 5 4 4 4 5 5 4 2 3 2 3 1 2 0 3 6 7
1 3 6 6 15 19 16 12 5 16 7 17 21 20 22 23 20 19 18 24 23 18 16 16 17 18 16 14 12 10 9 8 11 10 9 9 9 3 1 3 3 1 2 2 7 6 4 2 7
4 6 5 8 13 14 17 12 9 3 7 14 16 22 23 17 18 19 19 22 21 20 17 17 18 18 15 12 9 9 7 7 8 8 11 11 14 12 8 8 4 3 3 1 7 6 4 1 5
2 8 13 11 12 14 15 9 11 5 15 16 18 18 16 17 17 18 18 23 22 22 21 19 19 17 14 9 9 8 8 6 5 4 9 10 8 11 10 13 11 6 7 5 5 7 2 2 3
5 8 7 5 14 16 14 9 5 11 17 18 18 17 15 17 20 16 20 25 26 25 23 21 19 15 12 11 11 11 9 9 6 7 9 6 8 9 7 10 10 8 5 4 1 2 2 3 4
3 16 12 5 5 8 16 3 6 16 17 18 17 16 14 17 20 20 25 27 31 27 26 23 20 15 12 11 12 16 13 10 9 7 8 7 5 6 9 13 13 9 7 4 4 4 3 2 10
6 6 3 2 7 8 4 4 8 13 17 17 16 14 14 14 21 22 26 25 31 28 28 23 20 19 15 12 11 10 8 12 11 8 4 5 5 5 5 6 7 8 6 5 4 2 3 7 8
7 4 4 6 7 3 3 4 12 14 14 14 14 14 14 13 20 24 27 29 33 31 28 27 24 24 19 16 13 7 5 8 9 10 8 5 4 2 1 1 3 2 5 3 1 2 5 7 10
4 5 2 3 6 8 3 3 15 15 14 15 14 14 14 14 18 27 29 32 33 33 27 29 28 23 21 19 14 10 7 6 5 10 13 9 7 5 4 2 3 4 3 5 2 3 4 5 7
12 12 10 5 5 1 6 2 17 16 12 12 12 12 14 13 20 23 28 29 29 33 33 30 27 24 20 21 17 12 9 10 7 6 11 13 11 8 7 5 3 4 3 3 3 4 5 5 3
6 8 1 3 2 3 2 10 14 15 18 15 10 10 13 14 8 16 23 26 30 35 36 32 27 23 23 24 19 12 8 12 8 7 9 11 10 8 10 10 6 6 5 4 5 5 5 5 4
4 7 9 4 5 2 0 6 6 7 8 11 10 14 12 16 12 11 21 27 28 28 35 35 29 26 21 21 17 11 7 8 9 9 7 8 9 8 9 9 6 4 3 6 3 4 4 4 9
6 12 12 11 8 4 5 4 7 12 8 9 15 14 15 14 13 12 17 21 26 31 33 34 31 28 23 19 17 16 12 8 7 9 7 5 3 3 4 4 5 7 3 3 3 4 4 7 10
10 9 5 7 4 3 2 1 6 7 16 19 15 16 18 17 16 17 21 26 31 27 32 35 32 29 27 22 17 16 11 8 9 7 5 5 5 3 5 7 5 8 7 7 8 8 9 11 11
8 11 9 4 3 3 8 6 6 6 26 21 12 18 19 19 18 19 26 24 23 25 28 33 30 27 29 24 17 13 12 13 12 8 8 5 8 10 9 9 9 7 8 10 10 10 11 12 14
9 8 3 2 1 6 2 7 12 5 6 24 18 14 17 17 17 15 14 19 19 22 23 27 28 26 26 22 18 14 12 14 10 9 10 12 11 9 9 7 8 9 8 8 9 9 11 14 14
13 9 6 7 5 3 5 6 5 10 4 7 7 4 11 15 13 13 14 18 18 21 23 25 27 24 18 15 14 13 11 12 14 11 12 15 12 9 7 8 9 8 9 10 11 13 13 14 16
4 6 6 7 2 3 4 5 3 13 13 14 13 14 11 9 9 8 10 16 20 22 25 27 28 19 14 14 17 17 18 19 20 16 12 11 9 6 7 8 8 10 13 14 13 15 17 19 20
7 5 2 3 4 4 5 4 4 3 8 11 12 12 11 12 11 9 12 16 16 19 21 25 25 24 22 22 21 21 20 19 16 13 11 8 8 6 6 7 10 10 12 14 17 18 19 21 22
0 2 5 5 4 6 3 5 4 7 10 11 10 11 12 12 12 11 11 20 23 24 23 26 24 24 23 21 20 18 15 12 9 7 8 7 7 8 10 11 13 13 15 16 18 18 20 21 22
2 2 6 5 4 1 3 4 6 8 12 13 11 12 11 12 9 9 16 11 16 23 24 23 21 21 18 15 13 12 10 8 6 4 8 9 9 10 11 12 12 13 14 16 19 21 22 23 22
Wind_Direction
143 158 322 27 67 79 52 62 127 140 139 295 161 129 107 39 41 159 149 148 152 144 140 133 130 130 124 122 116 112 112 109 106 106 101 102 103 105 103 101 97 93 93 94 92 96 98 98 100
134 71 56 38 75 86 39 90 131 119 111 92 77 71 46 70 55 110 124 153 151 143 141 135 139 136 132 122 120 119 115 114 113 109 107 108 107 106 105 103 95 96 91 88 94 103 108 108 105
107 73 62 52 97 115 143 84 100 108 143 106 111 76 62 78 105 132 149 153 148 144 140 143 146 136 132 129 131 124 123 120 115 113 110 114 112 108 107 99 97 95 94 96 100 107 117 117 121
119 23 53 39 121 129 137 135 136 118 90 76 110 80 74 109 120 138 147 151 149 146 148 151 147 137 136 134 134 123 124 133 121 120 125 118 115 112 115 110 100 95 96 97 105 117 125 118 112
32 63 50 26 87 108 125 139 125 110 94 107 115 98 73 60 128 140 149 154 150 149 154 149 140 142 136 133 128 129 123 130 134 131 132 128 131 124 114 106 100 96 90 91 105 126 137 123 109
35 65 48 133 122 116 101 129 110 86 99 107 96 94 76 132 138 151 153 155 153 151 148 144 144 145 135 130 119 117 127 129 132 133 130 129 124 115 108 102 96 90 85 89 107 127 141 141 136
14 18 223 116 124 129 149 129 120 122 98 85 114 91 129 141 149 155 158 154 153 152 149 153 149 139 129 130 126 130 134 134 133 130 127 123 116 108 99 94 93 91 87 86 101 126 153 135 10
84 224 20 98 152 137 145 105 125 83 72 109 140 147 154 155 154 156 156 153 155 152 154 151 144 150 145 137 126 124 124 124 122 121 119 112 100 90 87 86 91 84 82 94 101 107 101 48 319
195 37 175 166 162 132 135 123 179 87 130 161 159 122 144 146 149 144 151 154 156 162 163 159 152 144 134 122 115 109 103 100 103 108 108 107 92 80 82 88 71 70 88 89 90 114 117 16 302
244 99 221 163 166 143 133 135 131 123 133 103 101 115 139 145 145 146 155 165 169 176 174 165 156 146 141 134 129 116 111 110 98 103 92 70 66 56 61 82 63 95 87 117 179 188 65 53 46
294 259 136 131 132 135 138 135 117 141 145 158 146 147 153 155 160 160 168 174 175 177 177 169 159 158 150 146 138 125 114 104 90 93 90 72 70 67 153 4 35 158 194 248 206 174 195 17 48
252 234 223 139 135 139 148 131 143 166 164 158 147 152 155 161 169 173 177 182 180 180 174 166 167 168 160 158 156 144 138 126 112 105 103 96 63 80 78 60 110 132 145 137 171 196 199 132 8
7 322 136 155 139 138 146 146 141 133 134 136 145 154 161 170 177 182 184 185 181 180 176 170 171 175 173 176 179 167 156 150 135 143 141 115 82 74 74 75 94 111 113 84 178 209 253 206 304
323 299 124 120 144 141 132 131 95 151 141 147 159 168 172 178 181 177 174 184 188 185 180 178 176 182 197 205 209 205 183 184 150 150 169 129 94 84 94 84 87 86 65 76 162 19 88 149 290
307 94 99 49 108 107 110 28 157 154 155 159 172 176 178 189 185 191 187 183 191 192 189 187 189 194 204 227 218 213 201 223 196 176 176 193 125 98 92 91 80 63 65 115 110 57 107 287 289
52 54 44 340 129 155 77 201 160 166 164 175 176 185 187 195 194 196 194 195 194 195 195 189 190 180 179 166 152 156 203 216 218 212 195 176 166 141 116 96 61 43 87 129 145 73 4 331 320
5 107 30 147 6 130 91 135 181 179 180 185 188 190 198 183 197 199 197 198 199 195 195 194 186 180 177 176 168 173 172 198 229 232 235 211 194 182 346 152 99 40 94 134 136 335 325 337 318
144 84 86 22 323 35 34 181 176 191 189 197 197 198 197 181 194 194 194 198 199 197 193 189 189 190 187 187 175 171 160 189 199 224 244 235 228 208 206 78 124 81 123 144 174 254 277 299 319
148 168 150 205 190 181 192 281 193 196 200 209 213 212 210 195 195 189 187 192 193 197 194 191 192 194 192 186 181 177 156 176 194 207 206 217 236 233 224 230 217 163 158 190 219 299 319 279 252
129 141 109 266 3 110 234 252 212 201 212 208 189 195 196 197 157 174 181 186 192 196 199 198 202 197 191 185 185 190 182 188 174 157 176 208 222 229 236 243 242 215 237 282 308 317 327 313 321
150 194 181 185 122 37 346 308 200 225 228 229 207 196 193 188 192 169 177 187 194 198 198 201 203 199 197 195 189 179 182 168 177 179 198 218 230 250 254 249 250 221 240 260 262 280 305 303 312
176 208 189 145 142 214 159 258 244 218 235 231 221 197 196 200 197 191 180 184 194 202 204 206 207 204 200 197 201 199 201 199 190 182 180 173 165 217 242 246 276 293 296 324 3 351 335 326 319
228 168 151 150 64 342 275 57 261 207 227 231 214 196 197 199 192 192 196 189 197 196 200 207 209 206 208 203 207 207 217 224 179 181 196 147 132 105 63 72 74 58 61 48 37 33 31 26 17
75 100 43 52 31 295 199 169 266 191 218 229 209 205 188 193 195 197 196 190 192 193 197 205 207 211 208 204 205 210 212 202 198 178 177 139 110 95 74 75 72 68 52 35 26 19 20 20 11
101 104 63 23 248 236 217 161 248 241 254 219 194 200 192 191 188 195 184 186 185 185 191 195 197 192 197 203 203 198 195 198 201 177 158 131 111 104 87 76 62 50 36 22 18 11 12 8 6
172 170 161 195 204 225 92 228 278 320 346 97 80 98 188 192 187 193 183 181 188 177 184 179 184 177 181 183 178 180 181 164 142 135 142 132 114 94 78 58 41 30 17 17 15 15 14 7 3
204 183 194 116 50 105 206 278 62 43 38 56 65 73 62 62 83 91 95 150 166 167 171 174 166 148 139 135 133 130 133 130 126 122 116 110 108 91 66 48 45 36 29 26 22 27 24 16 9
150 170 77 5 164 243 299 276 199 53 95 89 77 75 63 49 44 59 85 84 92 113 127 142 137 126 118 116 119 121 123 122 120 116 97 80 75 62 57 56 42 41 39 34 28 24 16 15 10
17 280 42 119 133 166 187 253 345 162 136 109 83 75 69 59 44 22 35 94 89 86 93 108 113 116 115 115 118 118 109 109 113 118 117 96 67 56 50 56 56 43 48 36 29 27 21 19 14
178 229 146 126 251 120 157 267 98 134 138 115 115 113 102 100 95 63 347 56 88 115 116 111 120 127 129 129 124 116 119 117 93 58 106 98 85 79 71 66 66 50 52 39 36 34 29 22 17
Height
777 777 777 778 799 800 808 801 785 795 797 787 791 798 807 810 814 834 815 818 820 823 825 826 827 828 828 828 828 829 829 829 829 830 831 832 832 833 833 834 834 834 835 836 837 837 837 837 838
775 776 778 783 809 821 814 788 794 793 795 788 795 798 806 818 811 816 818 821 823 825 826 828 829 830 831 831 832 832 832 832 833 833 834 834 835 835 836 837 837 838 839 840 840 840 840 840 841
775 776 785 797 808 823 815 795 790 793 788 790 801 799 808 819 816 817 818 823 826 827 829 830 831 832 833 833 834 835 835 835 835 835 836 837 837 838 839 840 840 840 841 841 842 842 843 844 844
774 780 786 801 803 796 793 792 790 791 789 789 797 812 810 815 817 818 822 825 827 829 830 831 833 834 835 836 836 836 837 837 837 837 837 838 840 841 841 842 842 842 842 843 844 845 845 846 846
779 786 802 805 797 787 785 784 787 794 796 796 795 815 817 819 819 821 824 827 829 831 832 834 836 837 837 838 839 838 839 839 839 838 839 840 841 843 843 843 844 844 844 845 846 846 846 847 847
790 790 809 812 798 787 787 786 790 796 795 800 806 811 822 820 821 824 827 829 831 833 836 837 838 839 839 840 840 840 841 841 840 840 841 842 843 844 845 845 846 846 847 847 847 847 847 848 848
793 800 803 796 798 797 795 785 795 798 800 804 801 819 822 823 824 826 829 831 833 835 836 836 837 840 841 842 842 842 842 842 842 843 844 845 846 846 847 847 848 847 848 849 849 849 849 849 850
793 799 797 791 795 799 785 789 793 796 805 799 800 822 825 822 825 829 831 834 835 837 837 838 839 841 842 843 843 843 844 844 845 846 847 848 848 848 848 849 849 850 851 849 850 850 850 850 850
788 804 806 798 791 790 781 794 793 793 801 800 801 808 816 822 826 830 834 836 837 837 837 839 841 842 843 844 845 846 847 847 847 847 848 849 849 849 849 849 851 852 852 852 851 850 850 850 849
793 802 789 773 775 784 784 788 795 803 806 810 808 814 820 824 826 829 833 835 837 836 838 840 842 843 844 845 846 848 848 848 848 849 850 851 851 849 849 849 851 852 852 852 851 851 851 849 847
781 791 766 769 768 772 783 793 790 803 816 806 809 814 819 824 827 830 832 833 834 835 838 840 843 845 846 846 847 849 849 849 849 849 850 851 850 848 848 848 851 851 851 851 850 849 849 848 846
789 767 766 770 767 776 786 787 798 798 800 802 806 808 816 823 827 830 832 833 834 836 838 841 844 845 847 848 849 849 849 849 849 850 850 851 851 849 849 849 849 850 851 849 848 848 848 848 847
782 771 763 764 769 777 779 790 796 801 798 804 809 814 818 822 826 829 832 834 835 836 839 841 843 845 847 849 850 850 850 850 850 851 851 851 851 850 849 849 850 851 850 849 847 849 849 847 845
779 775 772 771 773 777 788 796 796 804 801 806 810 814 816 819 822 827 831 833 834 835 838 841 843 845 847 847 849 851 850 851 851 852 852 852 852 851 851 852 851 851 851 849 848 848 847 846 843
778 783 782 782 780 790 786 810 810 800 803 808 811 812 815 817 821 823 825 829 832 833 836 839 842 844 845 845 847 849 851 851 851 851 852 853 853 852 852 851 851 851 851 850 850 850 849 848 844
794 800 815 792 786 789 794 828 808 801 804 809 810 812 814 816 818 822 825 828 830 832 835 838 840 842 844 845 847 849 850 850 851 851 851 852 852 853 853 852 851 852 850 851 850 850 849 848 847
817 827 821 806 787 792 803 821 806 801 803 808 808 809 810 813 816 818 821 825 827 829 833 836 838 840 841 844 846 848 848 849 850 851 852 852 852 853 853 852 851 851 851 851 851 852 850 848 846
829 827 821 825 806 796 806 811 803 801 804 805 804 803 805 809 809 811 816 820 824 828 831 834 837 839 841 842 845 847 848 849 849 850 851 853 853 852 853 853 852 852 851 851 851 850 849 849 847
797 809 816 809 795 803 804 810 805 800 804 807 804 804 802 804 806 810 813 817 821 826 830 832 835 837 839 841 843 845 846 848 849 848 848 851 852 852 851 851 852 851 852 851 851 850 850 848 849
802 813 818 808 801 807 813 813 803 801 797 795 800 803 801 801 806 810 813 816 819 821 825 829 832 835 836 837 840 843 845 846 847 847 847 849 850 850 850 850 849 850 850 850 849 849 848 848 847
809 812 814 812 809 813 817 820 810 802 796 790 789 791 795 797 802 806 809 811 816 820 822 826 829 831 835 839 839 841 844 845 845 845 847 848 848 849 849 848 847 847 847 849 849 849 847 846 845
817 789 794 808 820 835 812 847 818 804 802 796 787 790 792 796 798 802 806 809 813 816 821 825 827 830 832 834 838 839 840 843 844 844 846 847 849 849 849 848 847 846 846 847 846 846 847 846 845
789 781 798 813 830 831 834 841 817 801 802 788 784 783 786 790 794 798 802 803 807 814 817 822 826 829 832 834 835 837 840 842 842 843 845 846 847 849 849 849 848 847 846 846 845 844 844 843 843
766 798 820 825 837 849 828 835 819 810 782 776 776 774 779 783 788 792 796 803 807 811 814 818 824 828 831 833 835 836 837 839 841 843 843 845 845 848 849 850 849 848 847 846 846 845 843 841 842
784 815 861 858 855 843 822 835 801 778 769 759 769 770 771 775 782 788 794 800 804 809 813 817 821 826 829 831 833 835 836 838 839 840 843 844 846 848 848 849 847 847 846 846 846 845 842 841 840
794 801 824 848 864 839 823 836 797 775 763 761 768 769 768 773 778 784 789 797 802 806 810 815 820 823 827 828 831 833 834 838 839 842 844 844 846 848 848 847 847 847 847 845 845 844 843 841 840
775 799 781 821 823 834 827 804 787 784 785 780 780 779 785 785 785 788 790 793 799 803 806 813 819 825 827 830 830 835 836 839 839 844 847 847 845 846 845 845 844 846 846 845 844 843 843 842 840
765 767 800 815 829 830 823 808 807 800 798 792 792 793 796 797 797 795 795 797 803 806 809 814 819 824 830 832 836 838 840 840 842 845 846 848 847 846 844 843 844 843 843 844 844 844 842 840 840
773 784 795 801 816 831 836 820 789 797 797 800 802 804 805 806 809 812 810 800 804 809 814 816 822 826 828 833 839 841 842 843 844 846 844 845 846 846 847 845 840 846 843 845 842 843 842 840 839
754 764 784 814 811 823 821 820 796 797 799 801 804 804 805 807 811 816 826 809 810 808 810 808 819 827 832 836 840 841 842 845 848 848 846 846 847 848 847 845 844 845 844 845 843 841 840 839 837